Date,TemperatureHighF,TemperatureAvgF,TemperatureLowF,DewpointHighF,DewpointAvgF,DewpointLowF,HumidityHigh,HumidityAvg,HumidityLow,PressureMaxIn,PressureMinIn,WindSpeedMaxMPH,WindSpeedAvgMPH,GustSpeedMaxMPH,PrecipitationSumIn
2013-11-1,76,58,44,56,47,40,90,69,39,30.06,29.82,7,0,7,0.00
2013-11-2,65,54,40,43,38,33,81,57,32,30.27,30.05,14,1,14,0.00
2013-11-3,65,51,0,46,40,32,87,68,46,30.23,30.01,10,1,10,0.00
2013-11-4,58,56,52,55,50,43,90,81,63,30.12,30.02,7,0,7,0.41
2013-11-5,67,62,58,64,59,55,92,91,90,30.08,29.94,7,0,7,0.24
2013-11-6,68,54,39,66,49,35,92,84,67,30.34,29.95,10,1,10,0.22
2013-11-7,61,46,35,42,38,32,90,74,45,30.49,30.34,7,0,7,0.00
2013-11-8,66,52,37,48,41,33,90,70,39,30.37,30.14,13,0,13,0.00
2013-11-9,62,56,49,49,46,43,81,69,59,30.24,30.14,8,0,8,0.00
2013-11-10,70,56,46,49,46,41,86,71,45,30.35,30.23,3,0,3,0.00
2013-11-11,72,54,41,54,46,38,90,77,49,30.28,30.16,5,0,5,0.00
2013-11-12,58,46,32,53,33,21,89,63,39,30.67,30.26,13,2,13,0.00
2013-11-13,138,80,0,100,71,20,89,47,40,30.69,30.38,8,0,8,0.00
2013-11-14,140,60,0,100,62,27,78,52,39,30.38,30.04,9,1,9,0.00
2013-11-15,138,57,0,100,68,44,87,64,62,30.05,29.85,11,0,11,0.00
2013-11-16,73,67,58,67,61,54,89,82,69,29.88,29.70,16,3,16,0.00
2013-11-17,84,73,61,68,58,40,84,62,38,30.00,29.70,14,2,14,0.00
2013-11-18,138,71,0,100,53,33,68,42,28,30.18,30.00,7,0,7,0.00
2013-11-19,140,83,0,100,85,35,62,29,30,30.20,30.03,7,0,7,0.00
2013-11-20,121,53,0,84,42,31,70,56,47,30.06,29.92,12,0,12,0.00
2013-11-21,67,62,45,64,57,41,90,82,64,30.16,29.96,11,0,11,0.16
2013-11-22,45,36,34,41,33,31,90,89,86,30.43,30.15,17,2,17,0.10
2013-11-23,42,38,34,37,33,26,90,83,69,30.54,30.41,7,1,7,0.00
2013-11-24,34,8,0,26,24,24,74,17,71,30.59,30.36,8,0,8,0.02
2013-11-25,0,0,0,24,24,24,0,0,100,30.36,30.15,6,0,6,0.37
2013-11-26,0,0,0,24,24,24,0,0,100,30.35,30.10,12,5,12,0.00
2013-11-27,60,18,0,33,22,18,88,29,44,30.47,30.34,11,1,11,0.00
2013-11-28,24,24,24,18,18,18,79,79,79,30.47,30.37,0,0,0,0.00
2013-11-29,24,6,0,18,18,18,79,19,79,30.54,30.36,0,0,0,0.00
2013-11-30,0,0,0,18,18,18,0,0,100,30.37,30.16,0,0,0,0.00